| time (UTC) | temp F | wind direction | speed MPH | gust MPH | rain 1hr in | rain 24hr in | rain mn in | humidity % | barometer mb |
| 20260903111317 | 59 | 252 | 4.0 | 7.0 | 0.00 | 0.00 | 0.00 | 66 | 1000.3 |
| 20260903110817 | 59 | 326 | 5.0 | 7.0 | 0.00 | 0.00 | 0.00 | 66 | 1000.7 |
| 20260903110317 | 59 | 233 | 5.0 | 6.0 | 0.00 | 0.00 | 0.00 | 67 | 1000.7 |
| 20260903105818 | 59 | 268 | 3.0 | 5.0 | 0.00 | 0.00 | 0.00 | 67 | 1000.7 |
| 20260903105315 | 59 | 258 | 5.0 | 7.0 | 0.00 | 0.00 | 0.00 | 67 | 1000.7 |
| 20260903104816 | 60 | 266 | 4.0 | 5.0 | 0.00 | 0.00 | 0.00 | 70 | 1000.3 |
| 20260903104315 | 60 | 298 | 2.0 | 3.0 | 0.00 | 0.00 | 0.00 | 71 | 1000.3 |
| 20260903103817 | 60 | 200 | 1.0 | 2.0 | 0.00 | 0.00 | 0.00 | 72 | 1000.3 |
| 20260903103315 | 60 | 252 | 1.0 | 2.0 | 0.00 | 0.00 | 0.00 | 71 | 1000.3 |
| 20260903102813 | 61 | 333 | 5.0 | 6.0 | 0.00 | 0.00 | 0.00 | 66 | 1000.7 |
| 20260903102312 | 61 | 294 | 6.0 | 8.0 | 0.00 | 0.00 | 0.00 | 65 | 1000.7 |
| 20260903101815 | 61 | 286 | 3.0 | 6.0 | 0.00 | 0.00 | 0.00 | 64 | 1000.3 |
| 20260903101312 | 61 | 325 | 1.0 | 2.0 | 0.00 | 0.00 | 0.00 | 63 | 1000.7 |
| 20260903100813 | 61 | 318 | 2.0 | 3.0 | 0.00 | 0.00 | 0.00 | 63 | 1000.3 |
| 20260903100312 | 61 | 246 | 5.0 | 7.0 | 0.00 | 0.00 | 0.00 | 63 | 1000.3 |
| 20260903095811 | 60 | 319 | 5.0 | 7.0 | 0.00 | 0.00 | 0.00 | 63 | 1000.3 |
| 20260903095313 | 60 | 324 | 5.0 | 8.0 | 0.00 | 0.00 | 0.00 | 63 | 1000.0 |
| 20260903094810 | 60 | 350 | 6.0 | 9.0 | 0.00 | 0.00 | 0.00 | 64 | 1000.0 |
| 20260903094312 | 60 | 284 | 3.0 | 6.0 | 0.00 | 0.00 | 0.00 | 64 | 1000.3 |
| 20260903093813 | 60 | 210 | 5.0 | 7.0 | 0.00 | 0.00 | 0.00 | 65 | 1000.3 |
| 20260903093312 | 60 | 273 | 4.0 | 6.0 | 0.00 | 0.00 | 0.00 | 66 | 1000.3 |
| 20260903092811 | 60 | 260 | 3.0 | 3.0 | 0.00 | 0.00 | 0.00 | 66 | 1000.3 |
| 20260903092310 | 60 | 282 | 6.0 | 10.0 | 0.00 | 0.00 | 0.00 | 66 | 1000.3 |
| 20260903091811 | 59 | 287 | 9.0 | 10.0 | 0.00 | 0.00 | 0.00 | 66 | 1000.3 |
| 20260903091312 | 59 | 290 | 6.0 | 8.0 | 0.00 | 0.00 | 0.00 | 66 | 1000.3 |
| 20260903090811 | 59 | 274 | 7.0 | 10.0 | 0.00 | 0.00 | 0.00 | 66 | 1000.3 |
| 20260903090310 | 59 | 250 | 3.0 | 5.0 | 0.00 | 0.00 | 0.00 | 67 | 1000.3 |
| 20260903085819 | 59 | 301 | 8.0 | 9.0 | 0.00 | 0.00 | 0.00 | 68 | 1000.3 |
| 20260903085310 | 59 | 5 | 3.0 | 5.0 | 0.00 | 0.00 | 0.00 | 68 | 1000.3 |
| 20260903084813 | 59 | 289 | 5.0 | 8.0 | 0.00 | 0.00 | 0.00 | 68 | 1000.3 |
| 20260903084312 | 59 | 238 | 3.0 | 3.0 | 0.00 | 0.00 | 0.00 | 68 | 1000.3 |
| 20260903083815 | 59 | 356 | 5.0 | 8.0 | 0.00 | 0.00 | 0.00 | 68 | 1000.3 |
| 20260903083310 | 58 | 262 | 2.0 | 3.0 | 0.00 | 0.00 | 0.00 | 68 | 1000.0 |
| 20260903082812 | 58 | 290 | 6.0 | 13.0 | 0.00 | 0.00 | 0.00 | 68 | 1000.0 |
| 20260903082311 | 58 | 326 | 6.0 | 9.0 | 0.00 | 0.00 | 0.00 | 69 | 1000.3 |
| 20260903081743 | 58 | 277 | 3.0 | 5.0 | 0.00 | 0.00 | 0.00 | 70 | 1000.3 |
| 20260903081240 | 58 | 294 | 6.0 | 8.0 | 0.00 | 0.00 | 0.00 | 71 | 1000.3 |
| 20260903080740 | 59 | 293 | 5.0 | 6.0 | 0.00 | 0.00 | 0.00 | 71 | 1000.3 |
| 20260903080238 | 59 | 268 | 3.0 | 5.0 | 0.00 | 0.00 | 0.00 | 71 | 1000.3 |
| 20260903075738 | 59 | 273 | 3.0 | 5.0 | 0.00 | 0.00 | 0.00 | 70 | 1000.3 |
| 20260903075238 | 59 | 26 | 5.0 | 8.0 | 0.00 | 0.00 | 0.00 | 70 | 1000.3 |
| 20260903074740 | 60 | 285 | 5.0 | 7.0 | 0.00 | 0.00 | 0.00 | 69 | 1000.3 |
| 20260903074237 | 60 | 271 | 5.0 | 7.0 | 0.00 | 0.00 | 0.00 | 68 | 1000.3 |
| 20260903073737 | 60 | 225 | 5.0 | 6.0 | 0.00 | 0.00 | 0.00 | 68 | 1000.3 |
| 20260903073236 | 60 | 297 | 1.0 | 2.0 | 0.00 | 0.00 | 0.00 | 67 | 1000.3 |
| 20260903072741 | 60 | 254 | 2.0 | 3.0 | 0.00 | 0.00 | 0.00 | 65 | 1000.3 |
| 20260903072240 | 60 | 288 | 3.0 | 3.0 | 0.00 | 0.00 | 0.00 | 66 | 1000.3 |
| 20260903071739 | 60 | 297 | 5.0 | 6.0 | 0.00 | 0.00 | 0.00 | 67 | 1000.3 |
| 20260903071241 | 60 | 307 | 4.0 | 5.0 | 0.00 | 0.00 | 0.00 | 67 | 1000.0 |
| 20260903070739 | 60 | 281 | 4.0 | 5.0 | 0.00 | 0.00 | 0.00 | 66 | 1000.3 |
| 20260903070239 | 60 | 336 | 3.0 | 3.0 | 0.00 | 0.00 | 0.00 | 65 | 1000.3 |
| 20260903065738 | 61 | 252 | 3.0 | 3.0 | 0.00 | 0.00 | 0.00 | 66 | 1000.3 |
| 20260903065240 | 61 | 273 | 3.0 | 3.0 | 0.00 | 0.00 | 0.00 | 66 | 1000.3 |
| 20260903064739 | 61 | 273 | 4.0 | 6.0 | 0.00 | 0.00 | 0.00 | 65 | 1000.3 |
| 20260903064238 | 60 | 244 | 2.0 | 3.0 | 0.00 | 0.00 | 0.00 | 65 | 1000.3 |
| 20260903063737 | 60 | 264 | 4.0 | 5.0 | 0.00 | 0.00 | 0.00 | 65 | 1000.3 |
| 20260903063237 | 60 | 343 | 5.0 | 7.0 | 0.00 | 0.00 | 0.00 | 65 | 1000.3 |
| 20260903062738 | 60 | 285 | 3.0 | 6.0 | 0.00 | 0.00 | 0.00 | 66 | 1000.3 |
| 20260903062238 | 60 | 304 | 5.0 | 8.0 | 0.00 | 0.00 | 0.00 | 66 | 1000.3 |
| 20260903061736 | 59 | 301 | 5.0 | 7.0 | 0.00 | 0.00 | 0.00 | 68 | 1000.3 |
| 20260903061235 | 59 | 349 | 3.0 | 5.0 | 0.00 | 0.00 | 0.00 | 70 | 1000.3 |
| 20260903060736 | 59 | 273 | 3.0 | 3.0 | 0.00 | 0.00 | 0.00 | 72 | 1000.3 |
| 20260903060237 | 60 | 219 | 0.0 | 1.0 | 0.00 | 0.00 | 0.00 | 73 | 1000.3 |
| 20260903055734 | 60 | 216 | 0.0 | 0.0 | 0.00 | 0.00 | 0.00 | 73 | 1000.3 |
| 20260903055235 | 60 | 224 | 1.0 | 1.0 | 0.00 | 0.00 | 0.00 | 73 | 1000.3 |
| 20260903054733 | 60 | 244 | 1.0 | 1.0 | 0.00 | 0.00 | 0.00 | 72 | 1000.3 |
| 20260903054235 | 60 | 227 | 0.0 | 0.0 | 0.00 | 0.00 | 0.00 | 72 | 1000.3 |
| 20260903053736 | 60 | 221 | 0.0 | 0.0 | 0.00 | 0.00 | 0.00 | 71 | 1000.7 |
| 20260903053233 | 60 | 230 | 0.0 | 0.0 | 0.00 | 0.00 | 0.00 | 71 | 1000.7 |
| 20260903052733 | 60 | 237 | 1.0 | 1.0 | 0.00 | 0.00 | 0.00 | 71 | 1000.7 |
| 20260903052234 | 60 | 257 | 1.0 | 2.0 | 0.00 | 0.00 | 0.00 | 70 | 1000.7 |
| 20260903051734 | 60 | 240 | 1.0 | 1.0 | 0.00 | 0.00 | 0.00 | 70 | 1000.7 |
| 20260903051234 | 61 | 234 | 0.0 | 0.0 | 0.00 | 0.00 | 0.00 | 70 | 1000.7 |
| 20260903050733 | 61 | 219 | 0.0 | 0.0 | 0.00 | 0.00 | 0.00 | 70 | 1001.0 |
| 20260903050232 | 61 | 219 | 0.0 | 0.0 | 0.00 | 0.00 | 0.00 | 70 | 1001.0 |
| 20260903045732 | 61 | 269 | 0.0 | 1.0 | 0.00 | 0.00 | 0.00 | 69 | 1000.7 |
| 20260903045231 | 61 | 228 | 0.0 | 0.0 | 0.00 | 0.00 | 0.00 | 69 | 1000.7 |
| 20260903044730 | 61 | 262 | 0.0 | 1.0 | 0.00 | 0.00 | 0.00 | 69 | 1000.7 |
| 20260903044230 | 61 | 213 | 0.0 | 0.0 | 0.00 | 0.00 | 0.00 | 69 | 1001.0 |
| 20260903043732 | 62 | 279 | 1.0 | 1.0 | 0.00 | 0.00 | 0.00 | 69 | 1001.0 |
| 20260903043230 | 62 | 216 | 1.0 | 1.0 | 0.00 | 0.00 | 0.00 | 69 | 1001.0 |
| 20260903042730 | 62 | 278 | 0.0 | 1.0 | 0.00 | 0.00 | 0.00 | 69 | 1001.0 |
| 20260903042230 | 62 | 270 | 1.0 | 1.0 | 0.00 | 0.00 | 0.00 | 69 | 1001.4 |
| 20260903041727 | 62 | 257 | 0.0 | 1.0 | 0.00 | 0.00 | 0.00 | 68 | 1001.4 |
| 20260903041228 | 62 | 221 | 0.0 | 0.0 | 0.00 | 0.00 | 0.00 | 69 | 1001.7 |
| 20260903040728 | 62 | 218 | 0.0 | 0.0 | 0.00 | 0.00 | 0.00 | 69 | 1001.4 |
| 20260903040228 | 62 | 237 | 0.0 | 0.0 | 0.00 | 0.00 | 0.00 | 69 | 1001.4 |
| 20260903035726 | 63 | 259 | 0.0 | 1.0 | 0.00 | 0.00 | 0.00 | 69 | 1001.7 |
| 20260903035227 | 63 | 251 | 3.0 | 3.0 | 0.00 | 0.00 | 0.00 | 69 | 1001.7 |
| 20260903034727 | 63 | 226 | 1.0 | 1.0 | 0.00 | 0.00 | 0.00 | 70 | 1001.7 |
| 20260903034226 | 63 | 257 | 0.0 | 1.0 | 0.00 | 0.00 | 0.00 | 69 | 1002.0 |
| 20260903033726 | 63 | 255 | 0.0 | 1.0 | 0.00 | 0.00 | 0.00 | 69 | 1002.0 |
| 20260903033226 | 64 | 229 | 0.0 | 1.0 | 0.00 | 0.00 | 0.00 | 69 | 1002.0 |
| 20260903032725 | 64 | 224 | 0.0 | 0.0 | 0.00 | 0.00 | 0.00 | 69 | 1002.0 |
| 20260903032225 | 64 | 242 | 0.0 | 1.0 | 0.00 | 0.00 | 0.00 | 68 | 1002.4 |
| 20260903031724 | 64 | 256 | 0.0 | 0.0 | 0.00 | 0.00 | 0.00 | 67 | 1002.4 |
| 20260903031224 | 64 | 221 | 0.0 | 0.0 | 0.00 | 0.00 | 0.00 | 67 | 1002.4 |
| 20260903030723 | 65 | 222 | 0.0 | 1.0 | 0.00 | 0.00 | 0.00 | 66 | 1002.4 |
| 20260903030224 | 65 | 235 | 0.0 | 0.0 | 0.00 | 0.00 | 0.00 | 66 | 1002.7 |
| 20260903025724 | 65 | 222 | 0.0 | 0.0 | 0.00 | 0.00 | 0.00 | 65 | 1002.4 |
| 20260903025223 | 65 | 268 | 1.0 | 1.0 | 0.00 | 0.00 | 0.00 | 65 | 1002.4 |
| 20260903024724 | 66 | 202 | 1.0 | 2.0 | 0.00 | 0.00 | 0.00 | 65 | 1002.4 |
| 20260903024224 | 66 | 199 | 0.0 | 0.0 | 0.00 | 0.00 | 0.00 | 64 | 1002.4 |
| 20260903023721 | 66 | 181 | 0.0 | 0.0 | 0.00 | 0.00 | 0.00 | 64 | 1002.4 |
| 20260903023222 | 66 | 179 | 0.0 | 0.0 | 0.00 | 0.00 | 0.00 | 64 | 1002.4 |
| 20260903022721 | 66 | 167 | 0.0 | 1.0 | 0.00 | 0.00 | 0.00 | 63 | 1002.4 |
| 20260903022222 | 67 | 157 | 0.0 | 0.0 | 0.00 | 0.00 | 0.00 | 63 | 1002.4 |
| 20260903021722 | 67 | 81 | 3.0 | 3.0 | 0.00 | 0.00 | 0.00 | 63 | 1002.4 |
| 20260903021220 | 68 | 158 | 0.0 | 1.0 | 0.00 | 0.00 | 0.00 | 62 | 1002.7 |
| 20260903020720 | 68 | 185 | 0.0 | 1.0 | 0.00 | 0.00 | 0.00 | 62 | 1002.4 |
| 20260903020220 | 69 | 130 | 1.0 | 1.0 | 0.00 | 0.00 | 0.00 | 61 | 1002.7 |
| 20260903015722 | 69 | 267 | 1.0 | 2.0 | 0.00 | 0.00 | 0.00 | 60 | 1002.4 |
| 20260903015219 | 70 | 117 | 3.0 | 5.0 | 0.00 | 0.00 | 0.00 | 59 | 1002.7 |
| 20260903014720 | 70 | 111 | 3.0 | 5.0 | 0.00 | 0.00 | 0.00 | 56 | 1002.4 |
| 20260903014219 | 70 | 149 | 2.0 | 2.0 | 0.00 | 0.00 | 0.00 | 51 | 1002.4 |
| 20260903013719 | 71 | 134 | 1.0 | 2.0 | 0.00 | 0.00 | 0.00 | 51 | 1002.4 |
| 20260903013219 | 71 | 168 | 0.0 | 0.0 | 0.00 | 0.00 | 0.00 | 51 | 1002.4 |
| 20260903012719 | 71 | 142 | 0.0 | 0.0 | 0.00 | 0.00 | 0.00 | 51 | 1002.4 |
| 20260903012217 | 71 | 102 | 2.0 | 3.0 | 0.00 | 0.00 | 0.00 | 50 | 1002.4 |
| 20260903011717 | 72 | 141 | 0.0 | 1.0 | 0.00 | 0.00 | 0.00 | 50 | 1002.0 |
| 20260903011217 | 72 | 144 | 0.0 | 1.0 | 0.00 | 0.00 | 0.00 | 50 | 1002.0 |
| 20260903010716 | 72 | 130 | 1.0 | 1.0 | 0.00 | 0.00 | 0.00 | 49 | 1002.4 |
| 20260903010216 | 72 | 119 | 2.0 | 2.0 | 0.00 | 0.00 | 0.00 | 48 | 1002.4 |
| 20260903005715 | 72 | 122 | 0.0 | 1.0 | 0.00 | 0.00 | 0.00 | 48 | 1002.4 |
| 20260903005216 | 72 | 142 | 1.0 | 1.0 | 0.00 | 0.00 | 0.00 | 48 | 1002.4 |
| 20260903004717 | 72 | 160 | 0.0 | 1.0 | 0.00 | 0.00 | 0.00 | 47 | 1002.4 |
| 20260903004219 | 72 | 181 | 0.0 | 0.0 | 0.00 | 0.00 | 0.00 | 47 | 1002.0 |
| 20260903003716 | 72 | 141 | 3.0 | 3.0 | 0.00 | 0.00 | 0.00 | 46 | 1002.0 |
| 20260903003215 | 73 | 161 | 1.0 | 1.0 | 0.00 | 0.00 | 0.00 | 48 | 1002.4 |
| 20260903002714 | 73 | 127 | 0.0 | 1.0 | 0.00 | 0.00 | 0.00 | 48 | 1002.4 |
| 20260903002214 | 73 | 86 | 1.0 | 2.0 | 0.00 | 0.00 | 0.00 | 47 | 1002.4 |
| 20260903001714 | 73 | 124 | 2.0 | 2.0 | 0.00 | 0.00 | 0.00 | 47 | 1002.4 |
| 20260903001214 | 73 | 41 | 0.0 | 1.0 | 0.00 | 0.00 | 0.00 | 47 | 1002.4 |
| 20260903000713 | 73 | 165 | 0.0 | 1.0 | 0.00 | 0.00 | 0.00 | 47 | 1002.0 |
| 20260903000212 | 74 | 163 | 1.0 | 2.0 | 0.00 | 0.00 | 0.00 | 46 | 1002.0 |
| 20260902235714 | 74 | 28 | 2.0 | 3.0 | 0.00 | 0.00 | 0.00 | 46 | 1002.4 |
| 20260902235213 | 74 | 39 | 2.0 | 3.0 | 0.00 | 0.00 | 0.00 | 45 | 1002.4 |
| 20260902234712 | 74 | 352 | 2.0 | 3.0 | 0.00 | 0.00 | 0.00 | 45 | 1002.0 |
| 20260902234213 | 74 | 159 | 4.0 | 6.0 | 0.00 | 0.00 | 0.00 | 45 | 1002.0 |
| 20260902233712 | 74 | 76 | 2.0 | 3.0 | 0.00 | 0.00 | 0.00 | 45 | 1002.0 |
| 20260902233212 | 74 | 284 | 0.0 | 1.0 | 0.00 | 0.00 | 0.00 | 44 | 1002.4 |
| 20260902232714 | 74 | 65 | 4.0 | 7.0 | 0.00 | 0.00 | 0.00 | 45 | 1002.4 |
| 20260902232211 | 74 | 25 | 5.0 | 7.0 | 0.00 | 0.00 | 0.00 | 45 | 1002.4 |
| 20260902231711 | 74 | 214 | 1.0 | 2.0 | 0.00 | 0.00 | 0.00 | 45 | 1002.4 |
| 20260902231212 | 74 | 207 | 2.0 | 3.0 | 0.00 | 0.00 | 0.00 | 44 | 1002.4 |
| 20260902230711 | 74 | 211 | 1.0 | 2.0 | 0.00 | 0.00 | 0.00 | 45 | 1002.4 |
| 20260902230142 | 73 | 169 | 3.0 | 5.0 | 0.00 | 0.00 | 0.00 | 44 | 1002.4 |
| 20260902225640 | 73 | 140 | 7.0 | 9.0 | 0.00 | 0.00 | 0.00 | 44 | 1002.4 |
| 20260902225136 | 73 | 12 | 3.0 | 3.0 | 0.00 | 0.00 | 0.00 | 45 | 1002.7 |
| 20260902224639 | 73 | 36 | 5.0 | 7.0 | 0.00 | 0.00 | 0.00 | 45 | 1002.7 |
| 20260902224135 | 73 | 349 | 3.0 | 3.0 | 0.00 | 0.00 | 0.00 | 47 | 1002.4 |
| 20260902223640 | 73 | 47 | 2.0 | 2.0 | 0.00 | 0.00 | 0.00 | 47 | 1002.7 |
| 20260902223142 | 72 | 344 | 2.0 | 3.0 | 0.00 | 0.00 | 0.00 | 47 | 1002.7 |
| 20260902222638 | 72 | 50 | 2.0 | 3.0 | 0.00 | 0.00 | 0.00 | 47 | 1002.7 |
| 20260902222140 | 72 | 62 | 3.0 | 5.0 | 0.00 | 0.00 | 0.00 | 47 | 1002.7 |
| 20260902221640 | 72 | 63 | 4.0 | 6.0 | 0.00 | 0.00 | 0.00 | 47 | 1002.7 |
| 20260902221137 | 72 | 80 | 3.0 | 3.0 | 0.00 | 0.00 | 0.00 | 48 | 1003.0 |
| 20260902220641 | 72 | 119 | 0.0 | 1.0 | 0.00 | 0.00 | 0.00 | 48 | 1002.7 |
| 20260902220140 | 72 | 73 | 2.0 | 3.0 | 0.00 | 0.00 | 0.00 | 47 | 1003.0 |
| 20260902215642 | 72 | 75 | 5.0 | 6.0 | 0.00 | 0.00 | 0.00 | 46 | 1003.0 |
| 20260902215136 | 72 | 197 | 2.0 | 3.0 | 0.00 | 0.00 | 0.00 | 46 | 1003.0 |
| 20260902214641 | 72 | 48 | 3.0 | 3.0 | 0.00 | 0.00 | 0.00 | 47 | 1003.4 |
| 20260902214136 | 73 | 98 | 2.0 | 3.0 | 0.00 | 0.00 | 0.00 | 50 | 1003.4 |
| 20260902213639 | 73 | 184 | 1.0 | 2.0 | 0.00 | 0.00 | 0.00 | 51 | 1003.4 |
| 20260902213141 | 73 | 169 | 2.0 | 3.0 | 0.00 | 0.00 | 0.00 | 50 | 1003.7 |
| 20260902212636 | 73 | 94 | 1.0 | 2.0 | 0.00 | 0.00 | 0.00 | 50 | 1003.4 |
| 20260902212137 | 72 | 189 | 2.0 | 3.0 | 0.00 | 0.00 | 0.00 | 51 | 1003.4 |
| 20260902211637 | 72 | 70 | 2.0 | 3.0 | 0.00 | 0.00 | 0.00 | 50 | 1003.7 |
| 20260902211138 | 72 | 203 | 0.0 | 0.0 | 0.00 | 0.00 | 0.00 | 52 | 1003.7 |
| 20260902210613 | 71 | 99 | 3.0 | 5.0 | 0.00 | 0.00 | 0.00 | 51 | 1003.7 |
| 20260902210122 | 71 | 147 | 1.0 | 2.0 | 0.00 | 0.00 | 0.00 | 50 | 1004.1 |
| 20260902205620 | 71 | 178 | 0.0 | 1.0 | 0.00 | 0.00 | 0.00 | 51 | 1003.7 |
| 20260902205121 | 71 | 134 | 1.0 | 1.0 | 0.00 | 0.00 | 0.00 | 53 | 1004.1 |
| 20260902204620 | 71 | 109 | 0.0 | 1.0 | 0.00 | 0.00 | 0.00 | 53 | 1003.7 |
| 20260902204121 | 71 | 2 | 2.0 | 2.0 | 0.00 | 0.00 | 0.00 | 53 | 1003.7 |
| 20260902203619 | 71 | 24 | 3.0 | 3.0 | 0.00 | 0.00 | 0.00 | 53 | 1003.7 |
| 20260902203120 | 71 | 124 | 2.0 | 2.0 | 0.00 | 0.00 | 0.00 | 54 | 1003.7 |
| 20260902202621 | 71 | 80 | 0.0 | 1.0 | 0.00 | 0.00 | 0.00 | 53 | 1004.1 |
| 20260902202119 | 71 | 74 | 1.0 | 2.0 | 0.00 | 0.00 | 0.00 | 51 | 1004.1 |
| 20260902201618 | 70 | 25 | 1.0 | 2.0 | 0.00 | 0.00 | 0.00 | 52 | 1004.1 |
| 20260902201119 | 70 | 107 | 1.0 | 2.0 | 0.00 | 0.00 | 0.00 | 52 | 1004.1 |
| 20260902200617 | 69 | 76 | 3.0 | 3.0 | 0.00 | 0.00 | 0.00 | 54 | 1004.1 |
| 20260902200116 | 69 | 239 | 0.0 | 1.0 | 0.00 | 0.00 | 0.00 | 56 | 1004.4 |
| 20260902195617 | 68 | 206 | 0.0 | 1.0 | 0.00 | 0.00 | 0.00 | 54 | 1004.1 |
| 20260902195116 | 68 | 251 | 2.0 | 2.0 | 0.00 | 0.00 | 0.00 | 59 | 1004.1 |
| 20260902194617 | 67 | 240 | 0.0 | 0.0 | 0.00 | 0.00 | 0.00 | 61 | 1004.1 |
| 20260902194115 | 67 | 281 | 1.0 | 2.0 | 0.00 | 0.00 | 0.00 | 63 | 1004.4 |
| 20260902193615 | 67 | 257 | 2.0 | 3.0 | 0.00 | 0.00 | 0.00 | 64 | 1004.4 |
| 20260902193116 | 67 | 262 | 2.0 | 2.0 | 0.00 | 0.00 | 0.00 | 65 | 1004.4 |
| 20260902192615 | 67 | 330 | 3.0 | 3.0 | 0.00 | 0.00 | 0.00 | 65 | 1004.4 |
| 20260902192114 | 67 | 283 | 2.0 | 3.0 | 0.00 | 0.00 | 0.00 | 64 | 1004.4 |
| 20260902191615 | 66 | 302 | 1.0 | 2.0 | 0.00 | 0.00 | 0.00 | 63 | 1004.7 |
| 20260902191114 | 66 | 292 | 1.0 | 1.0 | 0.00 | 0.00 | 0.00 | 64 | 1004.7 |
| 20260902190613 | 66 | 271 | 1.0 | 1.0 | 0.00 | 0.00 | 0.00 | 65 | 1004.7 |
| 20260902190114 | 66 | 238 | 0.0 | 1.0 | 0.00 | 0.00 | 0.00 | 63 | 1004.7 |
| 20260902185612 | 66 | 227 | 0.0 | 0.0 | 0.00 | 0.00 | 0.00 | 65 | 1004.7 |
| 20260902185115 | 66 | 227 | 0.0 | 0.0 | 0.00 | 0.00 | 0.00 | 66 | 1004.7 |
| 20260902184614 | 66 | 168 | 0.0 | 0.0 | 0.00 | 0.00 | 0.00 | 66 | 1004.7 |
| 20260902184112 | 66 | 36 | 1.0 | 1.0 | 0.00 | 0.00 | 0.00 | 65 | 1004.7 |
| 20260902183612 | 66 | 134 | 0.0 | 0.0 | 0.00 | 0.00 | 0.00 | 67 | 1004.7 |
| 20260902183119 | 65 | 46 | 0.0 | 1.0 | 0.00 | 0.00 | 0.00 | 65 | 1004.7 |
| 20260902182613 | 65 | 63 | 0.0 | 1.0 | 0.00 | 0.00 | 0.00 | 65 | 1004.7 |
| 20260902182115 | 65 | 142 | 0.0 | 0.0 | 0.00 | 0.00 | 0.00 | 66 | 1004.7 |
| 20260902181615 | 64 | 188 | 0.0 | 0.0 | 0.00 | 0.00 | 0.00 | 65 | 1004.7 |
| 20260902181113 | 64 | 53 | 1.0 | 1.0 | 0.00 | 0.00 | 0.00 | 66 | 1004.7 |
| 20260902180611 | 64 | 198 | 0.0 | 0.0 | 0.00 | 0.00 | 0.00 | 66 | 1004.7 |
| 20260902180045 | 64 | 233 | 1.0 | 1.0 | 0.00 | 0.00 | 0.00 | 66 | 1004.7 |
| 20260902175539 | 64 | 237 | 1.0 | 2.0 | 0.00 | 0.00 | 0.00 | 68 | 1004.7 |
| 20260902175038 | 64 | 219 | 0.0 | 1.0 | 0.00 | 0.00 | 0.00 | 69 | 1004.7 |
| 20260902174535 | 64 | 263 | 1.0 | 1.0 | 0.00 | 0.00 | 0.00 | 69 | 1004.7 |
| 20260902174036 | 63 | 256 | 0.0 | 1.0 | 0.00 | 0.00 | 0.00 | 69 | 1004.7 |
| 20260902173540 | 63 | 284 | 1.0 | 2.0 | 0.00 | 0.00 | 0.00 | 69 | 1004.7 |
| 20260902173037 | 63 | 229 | 0.0 | 0.0 | 0.00 | 0.00 | 0.00 | 67 | 1004.7 |
| 20260902172536 | 63 | 212 | 0.0 | 0.0 | 0.00 | 0.00 | 0.00 | 66 | 1004.7 |
| 20260902172024 | 63 | 184 | 0.0 | 0.0 | 0.00 | 0.00 | 0.00 | 68 | 1004.7 |
| 20260902171525 | 63 | 103 | 0.0 | 1.0 | 0.00 | 0.00 | 0.00 | 69 | 1004.7 |
| 20260902171023 | 63 | 316 | 0.0 | 1.0 | 0.00 | 0.00 | 0.00 | 69 | 1004.7 |
| 20260902170526 | 64 | 241 | 1.0 | 1.0 | 0.00 | 0.00 | 0.00 | 70 | 1004.7 |
| 20260902170026 | 64 | 258 | 1.0 | 1.0 | 0.00 | 0.00 | 0.00 | 69 | 1004.7 |
| 20260902165525 | 63 | 256 | 1.0 | 1.0 | 0.00 | 0.00 | 0.00 | 67 | 1004.7 |
| 20260902165024 | 63 | 236 | 1.0 | 1.0 | 0.00 | 0.00 | 0.00 | 66 | 1004.7 |
| 20260902164523 | 63 | 125 | 0.0 | 1.0 | 0.00 | 0.00 | 0.00 | 66 | 1004.7 |
| 20260902164024 | 63 | 217 | 0.0 | 0.0 | 0.00 | 0.00 | 0.00 | 67 | 1004.7 |
| 20260902163524 | 63 | 222 | 0.0 | 0.0 | 0.00 | 0.00 | 0.00 | 66 | 1004.7 |
| 20260902163023 | 64 | 208 | 0.0 | 0.0 | 0.00 | 0.00 | 0.00 | 68 | 1004.7 |
| 20260902162524 | 64 | 125 | 2.0 | 2.0 | 0.00 | 0.00 | 0.00 | 69 | 1004.7 |
| 20260902162023 | 64 | 101 | 2.0 | 3.0 | 0.00 | 0.00 | 0.00 | 69 | 1004.4 |
| 20260902161526 | 64 | 76 | 0.0 | 1.0 | 0.00 | 0.00 | 0.00 | 61 | 1004.1 |
| 20260902161026 | 63 | 164 | 0.0 | 0.0 | 0.00 | 0.00 | 0.00 | 62 | 1004.1 |
| 20260902160523 | 63 | 314 | 0.0 | 0.0 | 0.00 | 0.00 | 0.00 | 64 | 1004.1 |
| 20260902160025 | 63 | 298 | 1.0 | 1.0 | 0.00 | 0.00 | 0.00 | 64 | 1004.1 |
| 20260902155525 | 63 | 286 | 0.0 | 1.0 | 0.00 | 0.00 | 0.00 | 65 | 1004.1 |
| 20260902155027 | 63 | 232 | 1.0 | 2.0 | 0.00 | 0.00 | 0.00 | 66 | 1004.1 |
| 20260902154519 | 62 | 247 | 0.0 | 0.0 | 0.00 | 0.00 | 0.00 | 64 | 1004.1 |
| 20260902154019 | 62 | 250 | 1.0 | 1.0 | 0.00 | 0.00 | 0.00 | 66 | 1004.1 |
| 20260902153519 | 62 | 235 | 1.0 | 2.0 | 0.00 | 0.00 | 0.00 | 65 | 1004.1 |
| 20260902153019 | 62 | 222 | 0.0 | 0.0 | 0.00 | 0.00 | 0.00 | 66 | 1004.1 |
| 20260902152524 | 61 | 259 | 2.0 | 2.0 | 0.00 | 0.00 | 0.00 | 66 | 1004.1 |
| 20260902152020 | 61 | 329 | 0.0 | 1.0 | 0.00 | 0.00 | 0.00 | 67 | 1004.1 |
| 20260902151528 | 61 | 277 | 1.0 | 2.0 | 0.00 | 0.00 | 0.00 | 67 | 1004.4 |
| 20260902151020 | 60 | 276 | 1.0 | 2.0 | 0.00 | 0.00 | 0.00 | 68 | 1004.4 |
| 20260902150521 | 60 | 278 | 1.0 | 1.0 | 0.00 | 0.00 | 0.00 | 70 | 1004.1 |
| 20260902150022 | 60 | 265 | 1.0 | 1.0 | 0.00 | 0.00 | 0.00 | 71 | 1004.4 |
| 20260902145516 | 59 | 289 | 2.0 | 2.0 | 0.00 | 0.00 | 0.00 | 70 | 1004.4 |
| 20260902144944 | 59 | 232 | 0.0 | 0.0 | 0.00 | 0.00 | 0.00 | 71 | 1004.4 |
| 20260902144442 | 59 | 281 | 2.0 | 2.0 | 0.00 | 0.00 | 0.00 | 72 | 1004.7 |
| 20260902143944 | 58 | 257 | 1.0 | 1.0 | 0.00 | 0.00 | 0.00 | 73 | 1004.4 |
| 20260902143444 | 58 | 255 | 1.0 | 1.0 | 0.00 | 0.00 | 0.00 | 74 | 1004.4 |
| 20260902142943 | 58 | 253 | 1.0 | 1.0 | 0.00 | 0.00 | 0.00 | 74 | 1004.4 |
| 20260902142440 | 57 | 223 | 0.0 | 1.0 | 0.00 | 0.00 | 0.00 | 76 | 1004.1 |
| 20260902141942 | 57 | 223 | 0.0 | 0.0 | 0.00 | 0.00 | 0.00 | 78 | 1004.1 |
| 20260902141419 | 57 | 223 | 0.0 | 0.0 | 0.00 | 0.00 | 0.00 | 79 | 1004.1 |
| 20260902140915 | 57 | 234 | 0.0 | 0.0 | 0.00 | 0.00 | 0.00 | 80 | 1004.4 |
| 20260902140418 | 57 | 212 | 0.0 | 0.0 | 0.00 | 0.00 | 0.00 | 80 | 1004.4 |
| 20260902135914 | 57 | 224 | 0.0 | 0.0 | 0.00 | 0.00 | 0.00 | 81 | 1004.4 |
| 20260902135415 | 57 | 242 | 0.0 | 0.0 | 0.00 | 0.00 | 0.00 | 81 | 1004.4 |
| 20260902134912 | 57 | 239 | 0.0 | 1.0 | 0.00 | 0.00 | 0.00 | 81 | 1004.4 |
| 20260902134416 | 57 | 203 | 0.0 | 0.0 | 0.00 | 0.00 | 0.00 | 80 | 1004.1 |
| 20260902133914 | 57 | 176 | 0.0 | 0.0 | 0.00 | 0.00 | 0.00 | 80 | 1004.1 |
| 20260902133411 | 57 | 186 | 0.0 | 0.0 | 0.00 | 0.00 | 0.00 | 79 | 1004.1 |
| 20260902132914 | 57 | 193 | 0.0 | 0.0 | 0.00 | 0.00 | 0.00 | 78 | 1004.4 |
| 20260902132412 | 57 | 171 | 0.0 | 0.0 | 0.00 | 0.00 | 0.00 | 78 | 1004.1 |
| 20260902131912 | 57 | 162 | 1.0 | 1.0 | 0.00 | 0.00 | 0.00 | 77 | 1004.1 |
| 20260902131413 | 57 | 192 | 0.0 | 0.0 | 0.00 | 0.00 | 0.00 | 78 | 1004.1 |
| 20260902130913 | 57 | 216 | 0.0 | 0.0 | 0.00 | 0.00 | 0.00 | 78 | 1004.1 |
| 20260902130412 | 57 | 236 | 0.0 | 1.0 | 0.00 | 0.00 | 0.00 | 78 | 1004.1 |
| 20260902125910 | 57 | 223 | 0.0 | 1.0 | 0.00 | 0.00 | 0.00 | 79 | 1004.1 |
| 20260902125413 | 56 | 244 | 1.0 | 1.0 | 0.00 | 0.00 | 0.00 | 78 | 1004.1 |
| 20260902124911 | 56 | 242 | 0.0 | 1.0 | 0.00 | 0.00 | 0.00 | 78 | 1003.7 |
| 20260902124414 | 56 | 248 | 0.0 | 1.0 | 0.00 | 0.00 | 0.00 | 78 | 1003.7 |
| 20260902123858 | 56 | 248 | 0.0 | 1.0 | 0.00 | 0.00 | 0.00 | 78 | 1003.7 |
| 20260902123352 | 56 | 223 | 0.0 | 1.0 | 0.00 | 0.00 | 0.00 | 80 | 1003.7 |
| 20260902122850 | 56 | 197 | 0.0 | 0.0 | 0.00 | 0.00 | 0.00 | 81 | 1003.7 |
| 20260902122337 | 56 | 200 | 0.0 | 0.0 | 0.00 | 0.00 | 0.00 | 81 | 1003.7 |
| 20260902121844 | 56 | 192 | 0.0 | 0.0 | 0.00 | 0.00 | 0.00 | 81 | 1003.7 |
| 20260902121336 | 56 | 186 | 0.0 | 0.0 | 0.00 | 0.00 | 0.00 | 82 | 1003.7 |
| 20260902120841 | 55 | 220 | 0.0 | 0.0 | 0.00 | 0.00 | 0.00 | 83 | 1004.1 |
| 20260902120252 | 55 | 67 | 1.0 | 2.0 | 0.00 | 0.00 | 0.00 | 82 | 1004.1 |
| 20260902115720 | 55 | 221 | 0.0 | 0.0 | 0.00 | 0.00 | 0.00 | 81 | 1004.1 |
| 20260902115149 | 55 | 227 | 0.0 | 1.0 | 0.00 | 0.00 | 0.00 | 82 | 1004.1 |
| 20260902114625 | 55 | 233 | 0.0 | 1.0 | 0.00 | 0.00 | 0.00 | 82 | 1004.1 |
| 20260902114103 | 55 | 224 | 0.0 | 1.0 | 0.00 | 0.00 | 0.00 | 83 | 1004.1 |
| 20260902113539 | 55 | 221 | 0.0 | 0.0 | 0.00 | 0.00 | 0.00 | 83 | 1004.1 |
| 20260902113036 | 55 | 222 | 0.0 | 0.0 | 0.00 | 0.00 | 0.00 | 83 | 1004.1 |
| 20260902112540 | 55 | 235 | 0.0 | 1.0 | 0.00 | 0.00 | 0.00 | 83 | 1004.1 |
| 20260902112047 | 55 | 251 | 0.0 | 1.0 | 0.00 | 0.00 | 0.00 | 83 | 1004.1 |
| 20260902111535 | 55 | 235 | 0.0 | 0.0 | 0.00 | 0.00 | 0.00 | 83 | 1004.1 |